Date String (YYYY-MM-DD hh:mm:ss) UTC,Instrument flags,absolute air pressure of the measurement (hPa),sample flow rate (lpm),inlet stack bypass flow (lpm),air temperature of the measurement (°C),ambient temperature measured by the external sensor (°C),aerosol sample conditioner tube jacket temperature (°C),OPC LED temperature (°C),internal box temperature (°C),relative humidity of the measurement (%),span deviation,mass concentration of particles derived from Lorenz-Mie calculation of OPC scattering (μg/m³),mass concentration of particles derived from Lorenz-Mie calculation of OPC scattering (μg/m³),mass concentration of particles derived from Lorenz-Mie calculation of OPC scattering (μg/m³)
DateTimeUTC,F1_M11,P_M11,Q1_M11,Q2_M11,T1_M11,T2_M11,T3_M11,T4_M11,T5_M11,U1_M11,ZSPAN_M11,X0_M11,X2_M11,X1_M11
2023-09-07 02:00:00,SystemResetWarning,0831.5,5.00,000.00,027.9,026.5,000.0,036.1,029.6,22.7,0002.6,0017.40,0006.27,0005.24
2023-09-07 02:01:00,SystemResetWarning,0831.5,5.00,000.00,027.9,026.8,000.0,036.2,029.7,22.5,0002.6,0017.68,0006.24,0005.25
2023-09-07 02:02:00,SystemResetWarning,0831.5,5.00,000.00,028.0,027.0,000.0,036.2,029.8,22.5,0002.6,0017.65,0006.26,0005.24
2023-09-07 02:03:00,SystemResetWarning,0831.5,5.00,000.00,028.1,027.1,000.0,036.2,029.8,22.4,0002.8,0018.10,0006.27,0005.25
2023-09-07 02:04:00,SystemResetWarning,0831.5,4.98,000.00,028.1,026.8,000.0,036.2,029.8,22.2,0002.9,0016.44,0006.25,0005.25
2023-09-07 02:05:00,SystemResetWarning,0831.5,5.00,000.00,028.0,025.3,000.0,036.2,029.4,22.2,0003.0,0016.75,0006.25,0005.27
2023-09-07 02:06:00,SystemResetWarning,0831.5,5.02,000.00,027.9,024.7,000.0,036.1,029.3,22.2,0003.1,0016.74,0006.25,0005.28
2023-09-07 02:07:00,SystemResetWarning,0831.5,5.00,000.00,027.9,024.9,000.0,036.1,029.2,22.3,0003.1,0017.18,0006.31,0005.29
2023-09-07 02:08:00,SystemResetWarning,0831.5,5.00,000.00,027.8,025.2,000.0,036.2,029.3,22.4,0003.0,0018.16,0006.31,0005.28
2023-09-07 02:09:00,SystemResetWarning,0831.5,5.01,000.00,027.8,025.6,000.0,036.2,029.4,22.5,0002.7,0018.34,0006.33,0005.28
2023-09-07 02:10:00,SystemResetWarning,0831.5,4.99,000.00,027.9,025.9,000.0,036.2,029.5,22.5,0002.9,0019.07,0006.33,0005.28
2023-09-07 02:11:00,SystemResetWarning,0831.5,5.00,000.00,027.9,026.3,000.0,036.2,029.6,22.4,0002.7,0019.38,0006.33,0005.26
2023-09-07 02:12:00,SystemResetWarning,0831.5,4.99,000.00,028.0,026.5,000.0,036.2,029.7,22.3,0003.1,0019.06,0006.32,0005.26
2023-09-07 02:13:00,SystemResetWarning,0831.5,5.01,000.00,028.0,026.8,000.0,036.3,029.8,22.2,0003.2,0019.81,0006.29,0005.25
2023-09-07 02:14:00,SystemResetWarning,0831.5,5.00,000.00,028.1,027.0,000.0,036.3,029.8,22.2,0003.2,0019.20,0006.27,0005.24
2023-09-07 02:15:00,SystemResetWarning,0831.5,4.99,000.00,028.1,026.9,000.0,036.3,029.8,22.1,0003.2,0019.46,0006.31,0005.26
2023-09-07 02:16:00,SystemResetWarning,0831.4,4.99,000.00,028.1,025.5,000.0,036.3,029.5,22.0,0003.2,0019.79,0006.28,0005.24
2023-09-07 02:17:00,SystemResetWarning,0831.5,5.02,000.00,028.0,024.7,000.0,036.2,029.4,22.2,0003.0,0019.57,0006.29,0005.24
2023-09-07 02:18:00,SystemResetWarning,0831.5,4.99,000.00,027.9,024.8,000.0,036.2,029.3,22.3,0003.0,0019.32,0006.27,0005.23
2023-09-07 02:19:00,SystemResetWarning,0831.5,5.00,000.00,027.9,025.1,000.0,036.2,029.3,22.3,0002.8,0018.88,0006.26,0005.24
2023-09-07 02:20:00,SystemResetWarning,0831.6,5.00,000.00,027.9,025.5,000.0,036.2,029.4,22.3,0002.9,0018.88,0006.34,0005.26
2023-09-07 02:21:00,SystemResetWarning,0831.5,5.00,000.00,027.9,025.9,000.0,036.3,029.5,22.3,0003.1,0018.84,0006.40,0005.29
2023-09-07 02:22:00,SystemResetWarning,0831.5,5.01,000.00,028.0,026.2,000.0,036.3,029.6,22.3,0003.2,0018.05,0006.44,0005.31
2023-09-07 02:23:00,SystemResetWarning,0831.5,5.00,000.00,028.0,026.5,000.0,036.3,029.7,22.1,0003.1,0017.11,0006.48,0005.33
2023-09-07 02:24:00,SystemResetWarning,0831.5,5.00,000.00,028.1,026.7,000.0,036.3,029.8,22.1,0002.9,0017.17,0006.58,0005.36
2023-09-07 02:25:00,SystemResetWarning,0831.5,5.00,000.00,028.1,026.9,000.0,036.3,029.9,22.0,0002.8,0016.55,0006.58,0005.38
2023-09-07 02:26:00,SystemResetWarning,0831.5,4.99,000.00,028.2,027.0,000.0,036.4,029.9,22.0,0002.5,0016.29,0006.56,0005.39
2023-09-07 02:27:00,SystemResetWarning,0831.5,4.99,000.00,028.1,025.8,000.0,036.3,029.6,22.0,0002.5,0015.67,0006.57,0005.40
2023-09-07 02:28:00,SystemResetWarning,0831.5,5.00,000.00,028.0,024.2,000.0,036.3,029.1,22.2,0002.6,0015.68,0006.68,0005.43
2023-09-07 02:29:00,SystemResetWarning,0831.5,5.00,000.00,027.8,023.8,000.0,036.2,029.0,22.4,0002.7,0015.68,0006.78,0005.44
2023-09-07 02:30:00,SystemResetWarning,0831.5,5.01,000.00,027.8,024.1,000.0,036.2,028.9,22.5,0002.6,0015.53,0006.82,0005.46
2023-09-07 02:31:00,SystemResetWarning,0831.5,5.01,000.00,027.7,024.5,000.0,036.2,029.0,22.5,0003.0,0015.35,0006.87,0005.48
2023-09-07 02:32:00,SystemResetWarning,0831.6,4.98,000.00,027.7,025.0,000.0,036.2,029.2,22.5,0003.0,0015.88,0006.87,0005.48
2023-09-07 02:33:00,SystemResetWarning,0831.6,5.00,000.00,027.7,025.4,000.0,036.2,029.3,22.5,0002.8,0015.48,0006.89,0005.49
2023-09-07 02:34:00,SystemResetWarning,0831.6,5.01,000.00,027.8,025.8,000.0,036.2,029.4,22.4,0002.8,0015.38,0006.86,0005.49
2023-09-07 02:35:00,SystemResetWarning,0831.6,5.01,000.00,027.8,026.1,000.0,036.2,029.5,22.3,0002.8,0015.57,0006.82,0005.48
2023-09-07 02:36:00,SystemResetWarning,0831.6,4.99,000.00,027.8,026.4,000.0,036.2,029.6,22.3,0002.8,0017.15,0006.83,0005.48
2023-09-07 02:37:00,SystemResetWarning,0831.6,5.00,000.00,027.9,026.6,000.0,036.2,029.6,22.1,0002.9,0018.46,0006.87,0005.49
2023-09-07 02:38:00,SystemResetWarning,0831.6,5.00,000.00,028.0,026.8,000.0,036.2,029.7,22.0,0002.9,0019.34,0006.91,0005.50
2023-09-07 02:39:00,SystemResetWarning,0831.6,5.00,000.00,028.0,027.0,000.0,036.3,029.8,22.0,0002.9,0020.03,0006.91,0005.50
2023-09-07 02:40:00,SystemResetWarning,0831.6,5.00,000.00,028.1,027.1,000.0,036.3,029.8,22.0,0002.8,0020.86,0006.79,0005.48
2023-09-07 02:41:00,SystemResetWarning,0831.6,4.99,000.00,028.1,027.1,000.0,036.3,029.9,22.0,0002.8,0020.75,0006.78,0005.47
2023-09-07 02:42:00,SystemResetWarning,0831.6,4.99,000.00,028.1,025.6,000.0,036.3,029.5,22.1,0002.4,0020.96,0006.72,0005.45
2023-09-07 02:43:00,SystemResetWarning,0831.5,5.00,000.00,027.9,024.0,000.0,036.2,029.0,22.3,0002.4,0021.28,0006.68,0005.44
2023-09-07 02:44:00,SystemResetWarning,0831.5,5.01,000.00,027.8,023.7,000.0,036.2,028.9,22.5,0002.5,0021.59,0006.68,0005.44
2023-09-07 02:45:00,SystemResetWarning,0831.5,5.01,000.00,027.7,024.0,000.0,036.1,028.9,22.6,0002.4,0021.97,0006.69,0005.43
2023-09-07 02:46:00,SystemResetWarning,0831.5,5.00,000.00,027.7,024.5,000.0,036.1,029.0,22.6,0002.5,0022.10,0006.69,0005.44
2023-09-07 02:47:00,SystemResetWarning,0831.6,5.00,000.00,027.7,024.9,000.0,036.1,029.1,22.5,0002.5,0020.91,0006.74,0005.43
2023-09-07 02:48:00,SystemResetWarning,0831.6,4.99,000.00,027.7,025.4,000.0,036.1,029.2,22.5,0002.5,0020.70,0006.71,0005.41
2023-09-07 02:49:00,SystemResetWarning,0831.6,4.99,000.00,027.7,025.7,000.0,036.1,029.3,22.5,0002.4,0020.49,0006.65,0005.38
2023-09-07 02:50:00,SystemResetWarning,0831.6,4.99,000.00,027.7,026.0,000.0,036.1,029.4,22.4,0002.5,0020.40,0006.59,0005.37
2023-09-07 02:51:00,SystemResetWarning,0831.6,5.01,000.00,027.8,026.3,000.0,036.1,029.5,22.4,0002.4,0020.12,0006.62,0005.37
2023-09-07 02:52:00,SystemResetWarning,0831.6,5.01,000.00,027.8,026.5,000.0,036.2,029.6,22.4,0002.4,0020.75,0006.68,0005.37
2023-09-07 02:53:00,SystemResetWarning,0831.6,4.99,000.00,027.9,026.7,000.0,036.2,029.6,22.5,0002.4,0020.34,0006.69,0005.39
2023-09-07 02:54:00,SystemResetWarning,0831.6,4.99,000.00,027.9,026.9,000.0,036.2,029.7,22.3,0002.5,0019.83,0006.77,0005.40
2023-09-07 02:55:00,SystemResetWarning,0831.7,5.00,000.00,028.0,027.0,000.0,036.2,029.8,22.3,0002.2,0020.09,0006.78,0005.40
2023-09-07 02:56:00,SystemResetWarning,0831.7,5.01,000.00,028.1,027.2,000.0,036.3,029.8,22.3,0002.2,0019.97,0006.80,0005.40
2023-09-07 02:57:00,SystemResetWarning,0831.7,4.99,000.00,028.1,027.3,000.0,036.3,029.9,22.1,0001.9,0020.56,0006.78,0005.39
2023-09-07 02:58:00,SystemResetWarning,0831.7,5.00,000.00,028.2,027.2,000.0,036.3,029.9,22.1,0002.0,0020.49,0006.77,0005.40
2023-09-07 02:59:00,SystemResetWarning,0831.7,5.00,000.00,028.1,025.9,000.0,036.3,029.6,22.3,0002.1,0021.08,0006.78,0005.42
